Laredo, TX

11:01 PM CDT en Septiembre 30, 2014 (GMT -0500)
Laredo International | Change Station
CLOSE
Current Station
Aeropuerto
Location: Laredo,
Altura: 509 ft
Estaciones meteorológicas cercanas

Alt 509 ft 27.54 °N, 99.46 °W | Updated 1 hour ago

Despejado
Despejado
82 ° F
Sensación térmica 88 ° F
N
10
Viento Variable Viento desde ESE

Hoy
Alta -- | Baja -- ° F
--% Posibilidad de precipitaciones
Ayer
Alta -- | Baja -- ° F
Precip. -- pul
7:30 AM 7:25 PM
Creciente, 43% visible
Presión 29.80 pul
Visibilidad 10.0 Millas
Nubes Despejado
Índice de calor 88 ° F
Punto de rocío 73 ° F
Humedad 74%
Precipitaciones 0.00 pul
Espesor de la nieve No disponible.
UV 0 de una escala de 12
Polen 9.30 de una escala de 12
Ozono Buena
PM2.5 Moderada
Flu Activity No disponible.
METAR KLRD 010256Z 12009KT 10SM CLR 28/23 A2980

More Conditions Fewer Conditions

Presión 29.80 pul
Visibilidad 10.0 Millas
Nubes Despejado
Índice de calor 88 ° F
Punto de rocío 73 ° F
Humedad 74%
Precipitaciones 0.00 pul
Espesor de la nieve No disponible.
UV 0 de una escala de 12
Polen 9.30 de una escala de 12
Ozono Buena
PM2.5 Moderada
Flu Activity No disponible.
METAR KLRD 010256Z 12009KT 10SM CLR 28/23 A2980

More Conditions Fewer Conditions

10-Day Weather Forecast

Almanac

Astronomía

Sep. 30, 2014 Salida Puesta
Hora real 7:30 AM CDT 7:25 PM CDT
Crepúsculo civil 7:06 AM CDT 7:48 PM CDT
Crepúsculo náutico 6:39 AM CDT 8:15 PM CDT
Crepúsculo astronómico 6:12 AM CDT 8:42 PM CDT
Luna 1:16 PM CDT (9/30) Sin puesta de luna
Horas de luz 12h 41m
Horas de luz
11h 54m
Tomorrow will be 1m 37s shorter.
Creciente, 43% of the Moon is Illuminated
Oct 1
Creciente
Oct 1
Cuarto creciente
Oct 8
Luna llena
Oct 15
Cuarto menguante
Oct 23
Nueva

Extremos de hoy

Máximos del estado Bajos del estado

Community

WunderPhotos

Upload Photos

1,757,840 ¡fotos cargadas!

Nearby

Calidad del aire

  Calidad del aire Índice AQ Contaminante
Ayer Moderada
PM2.5
Ayer Buena
OZONE
Real Moderada
PM2.5
Real Buena
OZONE
Martes Buena
PM10
Martes Buena
OZONE
Miércoles Buena
PM10
Miércoles Buena
OZONE
Jueves Buena
PM10
Jueves Buena
OZONE
Viernes Buena
PM10
Viernes Buena
OZONE

Grosos de nieve

Estación Profundido Altura
No tenemos constancia de nieve nueva.

Actividad de terremotos

Ciudad Distance Mag. Tiempo y dato
No hay informes recientes de la actividad sísmica.
Magnitud mínima muestra es 2,5.

Temperaturas de aguas costeras

Lugar Temperatura
Sin partes meteorológicos de las estaciones

Estaciones meteorológicas cercanas